Content
SEND FEEDBACK

Daily
Averages
Monthly
Summary
United States of America

BAKER, OREGON


Home > North America > United States > Oregon
Elevation: 3369 feet     Latitude: 44 50N     Longitude: 117 48W

WEATHER
 
SELECT A DAY
Number of Records: 194,467;   Date Range: 1/1/95 - 12/16/14
 
SHARE

PRINT THIS DATA

[ ← Previous Day ]
WEATHER ALMANAC - FEBRUARY 13, 2013
[ Next Day → ]
[ °C ]   °F
Weather ElementAverageHighLow
Temperature36.3 °F46.9 °F (12:53 pm)28 °F (4:53 am)
Dewpoint28.8 °F32 °F (11:53 am)26.1 °F (6:53 am)
Humidity76 %96 % (4:53 am)53 % (3:53 pm)
Barometer30.35 in30.40 in (11:53 pm)30.30 in (1:53 pm)
Wind Speed5.2 mph17.3 mph (2:53 pm)
Weather ElementAverage
Visibility9.9 mi
Wind DirectionSSE (161.3 °)

Weather ElementTotal
Precipitation---
Heating Degree Days27.6 (Base 65)
Averaged from 23 records on February 13, 2013
WEATHER CONDITIONS BREAKOUT
WIND DIRECTION BREAKOUT
WEATHER BY HOUR - FEBRUARY 13, 2013
[ °C ]   °F
Local TimeTemperatureDewpointHumidityBarometerVisibilityWind DirectionWind SpeedGust SpeedPrecipitationEventsConditions
1:53 AM30.9 °F28.9 °F92 %30.36 in10.0 miCalmOvercast
2:53 AM30.0 °F28.0 °F92 %30.36 in10.0 miWSW (250°)3.5 mphOvercast
3:53 AM28.9 °F27.0 °F92 %30.35 in10.0 miCalmMostly Cloudy
4:53 AM28.0 °F27.0 °F96 %30.34 in10.0 miCalmClear
5:53 AM28.9 °F28.0 °F96 %30.34 in10.0 miCalmMostly Cloudy
6:53 AM28.0 °F26.1 °F92 %30.35 in10.0 miSE (140°)4.6 mphPartly Cloudy
7:53 AM28.9 °F27.0 °F92 %30.35 in8.0 miNNE (30°)4.6 mphClear
8:53 AM34.0 °F30.9 °F89 %30.35 in10.0 miCalmClear
9:53 AM36.0 °F30.0 °F79 %30.36 in10.0 miCalmClear
10:53 AM43.0 °F30.9 °F62 %30.35 in10.0 miCalmClear
11:53 AM44.1 °F32.0 °F63 %30.33 in10.0 miCalmClear
12:53 PM46.9 °F32.0 °F56 %30.31 in10.0 miNW (310°)6.9 mphClear
1:53 PM46.9 °F30.9 °F54 %30.30 in10.0 miNorth (10°)12.7 mphScattered Clouds
2:53 PM45.0 °F30.0 °F56 %30.30 in10.0 miNorth (360°)17.3 mphScattered Clouds
3:53 PM45.0 °F28.9 °F53 %30.31 in10.0 miWNW (300°)6.9 mphMostly Cloudy
4:53 PM41.0 °F28.0 °F60 %30.32 in10.0 miNNW (330°)12.7 mphOvercast
5:53 PM37.0 °F28.0 °F70 %30.35 in10.0 miNorth (350°)9.2 mphOvercast
6:53 PM35.1 °F28.0 °F76 %30.36 in10.0 miNNW (340°)8.1 mphOvercast
7:53 PM35.1 °F28.9 °F78 %30.37 in10.0 miNorth (360°)8.1 mphOvercast
8:53 PM37.9 °F28.9 °F70 %30.38 in10.0 miWest (260°)5.8 mphOvercast
9:53 PM37.0 °F28.9 °F73 %30.38 in10.0 miNW (320°)9.2 mphOvercast
10:53 PM35.1 °F28.0 °F76 %30.38 in10.0 miNorth (350°)10.4 mphScattered Clouds
11:53 PM32.0 °F27.0 °F82 %30.40 in10.0 miCalmClear
Hourly data recorded from KBKE, located miles away from Baker, Oregon







STORIES FROM OUR PARTNERS